Погода в Михайловке

Россия / Республика Крым     45°06′39″N   33°36′36″E
темп.,
°C
ветер,
м/с
пор.,
м/с
влажн.,
%
обл.,
%
осадки,
мм/ч
давл.,
гПа
погр.,
м
13 июня, вс
вс1300:00+20юз22800 0.0 101320
03:00+19ю22795 0.0 101354
06:00+19ю33805 0.0 1012127
09:00+20ююз457626 0.0 1012271
12:00+20юз56785 0.0 1012381
15:00+21юз67800 0.0 1011436
18:00+20ююз67820 0.0 1010386
21:00+20ююз79845 0.3 1010315
14 июня, пн
пн1400:00+20ю8118383 0.9 1009497
03:00+19ю6983100 1.1 1009409
06:00+19ююв577799 0.0 1008320
09:00+20юв2267100 0.1 1009255
12:00+19ююз4581100 1.3 1010330
15:00+20вюв237459 2.8 1010319
18:00+19юз55804 0.0 1010365
21:00+19зюз338199 0.0 1010231
15 июня, вт
вт1500:00+19з1181100 0.0 1010228
03:00+18ссв3484100 0.3 1009258
06:00+17св3490100 2.1 1008190
09:00+18св5792100 4.9 1007284
12:00+19всв7986100 1.6 1007345
15:00+21зюз137734 5.4 1007209
18:00+19ююз10108033 1.3 1007842
21:00+19ююз897566 1.3 1008949
16 июня, ср
ср1600:00+19ююз91072100 0.1 10081085
03:00+19ю6772100 0.1 1008852
06:00+18юв447899 0.0 1009259
09:00+19всв22674 0.0 1009359
12:00+20ссз226451 1.1 1010364
15:00+20зсз446834 2.0 1010532
18:00+21сз336830 0.4 1011359
21:00+20ссв45725 0.5 1011216
17 июня, чт
чт1700:00+18св447519 0.0 1011165
03:00+17всв447674 0.0 1011155
06:00+17св4476100 0.0 1011188
09:00+18с4481100 0.2 1012234
12:00+18сз337935 0.2 1013328
15:00+19зсз54779 0.2 1013406
18:00+19зсз437422 0.0 1014298
21:00+19з44734 0.0 1014310